BAW39P LFML-EGLL

Flight info

Callsign BAW39P
Flight time N/A
Altitude 34000
Route ETREK DCT MADOT DCT MOPEM DCT CACHI DCT AVLON DCT OKRIX/N0447F380 DCT BRY DCT CLM DCT KOPOR DCT ABNUR DCT DIMAL DCT ALESO
Aircraft A319/M-SDE2E3FGHIJ1RWXY/SB1

Departure

Time 2026-05-07 13:18
Airport Marseille Provence Airport (LFML)

Arrival

Time N/A
Airport London Heathrow Airport (EGLL)
Time Latitude Longitude Altitude Speed Heading
2026-05-07 12:33 43.43153 5.22791 66 ft 0 kts 322°
2026-05-07 13:06 43.43150 5.22794 62 ft 4 kts 325°
2026-05-07 13:06 43.43135 5.22817 57 ft 4 kts 303°
2026-05-07 13:07 43.43126 5.22844 59 ft 2 kts 281°
2026-05-07 13:07 43.43124 5.22874 61 ft 4 kts 250°
2026-05-07 13:07 43.43130 5.22890 60 ft 4 kts 227°
2026-05-07 13:07 43.43151 5.22912 66 ft 4 kts 209°
2026-05-07 13:08 43.43157 5.22917 65 ft 0 kts 210°
2026-05-07 13:15 43.43139 5.22899 58 ft 10 kts 222°
2026-05-07 13:15 43.43066 5.22802 66 ft 13 kts 159°
2026-05-07 13:15 43.43003 5.22904 69 ft 16 kts 134°
2026-05-07 13:15 43.42925 5.23008 71 ft 15 kts 148°
2026-05-07 13:16 43.42822 5.22956 70 ft 19 kts 221°
2026-05-07 13:16 43.42777 5.22898 73 ft 1 kts 224°
2026-05-07 13:16 43.42763 5.22876 70 ft 5 kts 231°
2026-05-07 13:16 43.42764 5.22800 66 ft 12 kts 296°
2026-05-07 13:17 43.42838 5.22687 69 ft 20 kts 315°
2026-05-07 13:17 43.42884 5.22623 65 ft 0 kts 314°
2026-05-07 13:17 43.42900 5.22599 65 ft 11 kts 314°
2026-05-07 13:17 43.43042 5.22394 62 ft 55 kts 313°
2026-05-07 13:18 43.43505 5.21725 51 ft 142 kts 313°
2026-05-07 13:18 43.44296 5.20524 385 ft 181 kts 310°
2026-05-07 13:18 43.45216 5.19209 1047 ft 202 kts 311°
2026-05-07 13:18 43.46244 5.17761 1498 ft 225 kts 313°
2026-05-07 13:19 43.47410 5.16133 1978 ft 251 kts 313°
2026-05-07 13:19 43.48652 5.14388 3015 ft 258 kts 313°
2026-05-07 13:19 43.49910 5.12612 4147 ft 261 kts 313°
2026-05-07 13:19 43.51181 5.10804 5346 ft 265 kts 313°
2026-05-07 13:20 43.52469 5.08963 6405 ft 269 kts 313°
2026-05-07 13:20 43.53609 5.07329 7263 ft 273 kts 312°
2026-05-07 13:20 43.54933 5.05430 8233 ft 277 kts 312°
2026-05-07 13:20 43.56278 5.03503 9211 ft 282 kts 312°
2026-05-07 13:21 43.57649 5.01543 10156 ft 287 kts 312°
2026-05-07 13:21 43.59092 4.99492 10566 ft 310 kts 312°
2026-05-07 13:21 43.60652 4.97286 10957 ft 330 kts 313°
2026-05-07 13:21 43.62275 4.94994 11639 ft 337 kts 313°
2026-05-07 13:22 43.63927 4.92655 12403 ft 342 kts 313°
2026-05-07 13:22 43.65598 4.90288 13162 ft 347 kts 313°
2026-05-07 13:22 43.67456 4.88124 13907 ft 353 kts 324°
2026-05-07 13:22 43.69635 4.86502 14580 ft 359 kts 336°
2026-05-07 13:23 43.72033 4.85456 15248 ft 364 kts 343°
2026-05-07 13:23 43.74482 4.84510 15932 ft 367 kts 343°
2026-05-07 13:23 43.76952 4.83549 16603 ft 371 kts 343°
2026-05-07 13:23 43.79449 4.82570 17269 ft 375 kts 343°
2026-05-07 13:24 43.81974 4.81573 17941 ft 379 kts 343°
2026-05-07 13:24 43.84520 4.80567 18564 ft 383 kts 343°
2026-05-07 13:24 43.87090 4.79554 19159 ft 386 kts 342°
2026-05-07 13:24 43.89682 4.78529 19761 ft 389 kts 342°
2026-05-07 13:25 43.92261 4.77510 20356 ft 392 kts 342°
2026-05-07 13:25 43.94937 4.76452 20957 ft 396 kts 342°
2026-05-07 13:25 43.97595 4.75403 21543 ft 399 kts 342°
2026-05-07 13:25 44.00282 4.74357 22119 ft 403 kts 342°
2026-05-07 13:26 44.03011 4.73414 22688 ft 407 kts 344°
2026-05-07 13:26 44.05786 4.72560 23250 ft 410 kts 345°
2026-05-07 13:26 44.08597 4.71747 23753 ft 414 kts 346°
2026-05-07 13:26 44.11425 4.70934 24198 ft 417 kts 345°
2026-05-07 13:27 44.14272 4.70099 24647 ft 419 kts 345°
2026-05-07 13:27 44.17134 4.69239 25098 ft 422 kts 345°
2026-05-07 13:27 44.20016 4.68359 25533 ft 425 kts 344°
2026-05-07 13:27 44.22910 4.67467 25967 ft 427 kts 344°
2026-05-07 13:28 44.25781 4.66575 26409 ft 430 kts 344°
2026-05-07 13:28 44.28750 4.65645 26842 ft 433 kts 343°
2026-05-07 13:28 44.31661 4.64733 27262 ft 435 kts 343°
2026-05-07 13:28 44.34663 4.63797 27701 ft 438 kts 343°
2026-05-07 13:29 44.37608 4.62880 28119 ft 441 kts 343°
2026-05-07 13:29 44.40608 4.61948 28540 ft 443 kts 343°
2026-05-07 13:29 44.43634 4.61012 28942 ft 446 kts 343°
2026-05-07 13:29 44.46710 4.60060 29354 ft 448 kts 343°
2026-05-07 13:30 44.49761 4.59112 29750 ft 451 kts 343°
2026-05-07 13:30 44.52830 4.58154 30127 ft 453 kts 343°
2026-05-07 13:30 44.55918 4.57189 30452 ft 455 kts 343°
2026-05-07 13:30 44.59014 4.56221 30752 ft 458 kts 343°
2026-05-07 13:31 44.62131 4.55245 31076 ft 459 kts 342°
2026-05-07 13:31 44.65286 4.54414 31381 ft 465 kts 349°
2026-05-07 13:31 44.68534 4.54227 31803 ft 470 kts 358°
2026-05-07 13:31 44.71798 4.54696 32253 ft 472 kts
2026-05-07 13:32 44.75005 4.55327 32702 ft 471 kts
2026-05-07 13:32 44.78289 4.55968 33145 ft 470 kts
2026-05-07 13:32 44.81526 4.56595 33592 ft 469 kts
2026-05-07 13:32 44.84720 4.57208 33930 ft 469 kts
2026-05-07 13:33 44.91105 4.58447 33993 ft 459 kts
2026-05-07 13:33 44.97426 4.59681 33995 ft 458 kts
2026-05-07 13:34 45.06878 4.61534 33994 ft 457 kts
2026-05-07 13:35 45.13174 4.62770 33998 ft 457 kts
2026-05-07 13:35 45.19461 4.63512 34006 ft 449 kts 352°
2026-05-07 13:36 45.25584 4.62309 34010 ft 443 kts 345°
2026-05-07 13:36 45.31668 4.60916 34024 ft 443 kts 346°
2026-05-07 13:37 45.37751 4.59537 34028 ft 442 kts 345°
2026-05-07 13:37 45.43821 4.58156 34037 ft 442 kts 345°
2026-05-07 13:38 45.49885 4.56753 34041 ft 441 kts 345°
2026-05-07 13:38 45.55942 4.55351 34039 ft 441 kts 345°
2026-05-07 13:39 45.61991 4.53947 34034 ft 440 kts 345°
2026-05-07 13:39 45.68034 4.52548 34032 ft 440 kts 345°
2026-05-07 13:40 45.74068 4.51151 34024 ft 439 kts 345°
2026-05-07 13:40 45.80102 4.49756 34028 ft 439 kts 345°
2026-05-07 13:41 45.86131 4.48352 34024 ft 439 kts 345°
2026-05-07 13:41 45.92154 4.46945 34026 ft 438 kts 345°
2026-05-07 13:42 45.98170 4.45533 34026 ft 438 kts 346°
2026-05-07 13:42 46.04175 4.44119 34021 ft 438 kts 346°
2026-05-07 13:43 46.10186 4.42710 34020 ft 437 kts 346°
2026-05-07 13:43 46.16187 4.41299 34017 ft 437 kts 346°
2026-05-07 13:44 46.22188 4.39890 34019 ft 437 kts 346°
2026-05-07 13:44 46.28181 4.38467 34026 ft 436 kts 345°
2026-05-07 13:45 46.34059 4.36672 34028 ft 433 kts 341°
2026-05-07 13:45 46.39883 4.34497 34025 ft 432 kts 341°
2026-05-07 13:46 46.45704 4.32318 34026 ft 432 kts 341°
2026-05-07 13:46 46.51551 4.30240 34030 ft 432 kts 342°
2026-05-07 13:47 46.57405 4.28206 34015 ft 433 kts 342°
2026-05-07 13:47 46.63258 4.26160 34014 ft 433 kts 342°
2026-05-07 13:48 46.69110 4.24091 34008 ft 433 kts 342°
2026-05-07 13:48 46.74956 4.22014 34022 ft 433 kts 342°
2026-05-07 13:49 46.80810 4.19939 34029 ft 433 kts 342°
2026-05-07 13:49 46.86654 4.17851 34029 ft 433 kts 342°
2026-05-07 13:50 46.92504 4.15743 34015 ft 433 kts 342°
2026-05-07 13:50 46.98353 4.13640 34018 ft 433 kts 342°
2026-05-07 13:51 47.04206 4.11549 34023 ft 433 kts 343°
2026-05-07 13:51 47.09893 4.08778 34026 ft 429 kts 334°
2026-05-07 13:52 47.15398 4.05521 34025 ft 429 kts 335°
2026-05-07 13:52 47.20943 4.02245 34029 ft 429 kts 335°
2026-05-07 13:53 47.26521 3.98939 34027 ft 429 kts 335°
2026-05-07 13:53 47.32025 3.95678 34032 ft 429 kts 335°
2026-05-07 13:54 47.37566 3.92375 34034 ft 430 kts 335°
2026-05-07 13:54 47.43108 3.89065 34037 ft 429 kts 335°
2026-05-07 13:55 47.48644 3.85754 34040 ft 429 kts 335°
2026-05-07 13:55 47.54185 3.82431 34041 ft 430 kts 335°
2026-05-07 13:56 47.59723 3.79101 34042 ft 430 kts 335°
2026-05-07 13:56 47.65266 3.75768 34040 ft 430 kts 335°
2026-05-07 13:57 47.70806 3.72424 34039 ft 430 kts 335°
2026-05-07 13:57 47.76341 3.69073 34040 ft 430 kts 335°
2026-05-07 13:58 47.81877 3.65725 34045 ft 429 kts 335°
2026-05-07 13:58 47.87411 3.62372 34035 ft 429 kts 334°
2026-05-07 13:59 47.92940 3.59004 34040 ft 429 kts 334°
2026-05-07 13:59 47.98469 3.55626 34042 ft 429 kts 334°
2026-05-07 14:00 48.03993 3.52233 34045 ft 430 kts 334°
2026-05-07 14:00 48.09519 3.48828 34044 ft 430 kts 334°
2026-05-07 14:01 48.15048 3.45412 34043 ft 430 kts 334°
2026-05-07 14:01 48.20581 3.41989 34042 ft 430 kts 334°
2026-05-07 14:02 48.25182 3.39145 34045 ft 430 kts 334°
2026-05-07 14:02 48.30712 3.35710 34045 ft 430 kts 334°
2026-05-07 14:03 48.36234 3.32265 34044 ft 430 kts 334°
2026-05-07 14:03 48.41761 3.28816 34047 ft 430 kts 334°
2026-05-07 14:04 48.47276 3.25321 34038 ft 430 kts 334°
2026-05-07 14:04 48.52780 3.21787 34043 ft 430 kts 334°
2026-05-07 14:05 48.58283 3.18253 34049 ft 430 kts 334°
2026-05-07 14:05 48.63791 3.14724 34047 ft 430 kts 334°
2026-05-07 14:06 48.69302 3.11183 34052 ft 430 kts 334°
2026-05-07 14:06 48.74809 3.07634 34046 ft 430 kts 334°
2026-05-07 14:07 48.80316 3.04074 34046 ft 430 kts 334°
2026-05-07 14:07 48.85738 3.00288 34042 ft 427 kts 327°
2026-05-07 14:08 48.90214 2.96370 34048 ft 427 kts 327°
2026-05-07 14:08 48.95398 2.91848 34041 ft 427 kts 327°
2026-05-07 14:09 49.00558 2.87334 34041 ft 427 kts 327°
2026-05-07 14:09 49.05706 2.82804 34044 ft 427 kts 327°
2026-05-07 14:10 49.10854 2.78264 34041 ft 428 kts 327°
2026-05-07 14:10 49.16006 2.73717 34043 ft 428 kts 327°
2026-05-07 14:11 49.21157 2.69163 34042 ft 428 kts 327°
2026-05-07 14:11 49.26304 2.64600 34046 ft 428 kts 327°
2026-05-07 14:12 49.31449 2.60027 34042 ft 428 kts 327°
2026-05-07 14:12 49.36599 2.55432 34054 ft 428 kts 327°
2026-05-07 14:13 49.41742 2.50822 34062 ft 428 kts 327°
2026-05-07 14:13 49.46881 2.46211 34066 ft 428 kts 327°
2026-05-07 14:14 49.52018 2.41598 34072 ft 428 kts 327°
2026-05-07 14:14 49.57216 2.37133 34073 ft 428 kts 329°
2026-05-07 14:15 49.62424 2.32805 34075 ft 428 kts 329°
2026-05-07 14:15 49.67658 2.28416 34073 ft 428 kts 328°
2026-05-07 14:16 49.72872 2.23988 34073 ft 428 kts 328°
2026-05-07 14:16 49.78079 2.19536 34069 ft 428 kts 328°
2026-05-07 14:17 49.83285 2.15084 34069 ft 428 kts 328°
2026-05-07 14:17 49.88484 2.10625 34068 ft 427 kts 328°
2026-05-07 14:18 49.93687 2.06154 34071 ft 427 kts 328°
2026-05-07 14:18 49.98885 2.01678 34069 ft 427 kts 328°
2026-05-07 14:19 50.04078 1.97191 34069 ft 427 kts 328°
2026-05-07 14:19 50.09269 1.92699 34073 ft 427 kts 328°
2026-05-07 14:20 50.14459 1.88200 34069 ft 427 kts 328°
2026-05-07 14:20 50.19190 1.82771 34068 ft 421 kts 313°
2026-05-07 14:21 50.23376 1.76386 34074 ft 421 kts 313°
2026-05-07 14:21 50.27563 1.69989 34073 ft 421 kts 313°
2026-05-07 14:22 50.31779 1.63542 34080 ft 430 kts 313°
2026-05-07 14:22 50.36067 1.56971 34081 ft 428 kts 313°
2026-05-07 14:23 50.40344 1.50401 33195 ft 436 kts 313°
2026-05-07 14:23 50.42535 1.47031 32232 ft 442 kts 313°
2026-05-07 14:23 50.44710 1.43682 31810 ft 435 kts 313°
2026-05-07 14:23 50.46857 1.40365 31242 ft 431 kts 313°
2026-05-07 14:24 50.48983 1.37075 30692 ft 427 kts 313°
2026-05-07 14:24 50.51056 1.33774 30133 ft 423 kts 311°
2026-05-07 14:24 50.53062 1.30427 29534 ft 418 kts 310°
2026-05-07 14:24 50.55008 1.27079 28982 ft 412 kts 310°
2026-05-07 14:25 50.56920 1.23755 28441 ft 407 kts 310°
2026-05-07 14:25 50.58821 1.20494 27918 ft 403 kts 311°
2026-05-07 14:25 50.60754 1.17338 27387 ft 398 kts 312°
2026-05-07 14:25 50.62703 1.14266 26870 ft 395 kts 313°
2026-05-07 14:26 50.64650 1.11250 26364 ft 391 kts 313°
2026-05-07 14:26 50.66583 1.08263 25865 ft 388 kts 313°
2026-05-07 14:26 50.68497 1.05284 25393 ft 385 kts 313°
2026-05-07 14:26 50.70382 1.02316 24909 ft 382 kts 313°
2026-05-07 14:27 50.72250 0.99353 24461 ft 380 kts 313°
2026-05-07 14:27 50.74083 0.96438 24014 ft 378 kts 313°
2026-05-07 14:27 50.75955 0.93453 23557 ft 375 kts 313°
2026-05-07 14:27 50.77782 0.90533 23092 ft 371 kts 313°
2026-05-07 14:28 50.79585 0.87650 22663 ft 367 kts 313°
2026-05-07 14:28 50.81367 0.84799 22230 ft 362 kts 313°
2026-05-07 14:28 50.83122 0.81991 21800 ft 357 kts 313°
2026-05-07 14:28 50.84839 0.79246 21360 ft 353 kts 313°
2026-05-07 14:29 50.86557 0.76500 20923 ft 350 kts 313°
2026-05-07 14:29 50.88260 0.73772 20468 ft 347 kts 313°
2026-05-07 14:29 50.89944 0.71065 20025 ft 344 kts 313°
2026-05-07 14:29 50.91620 0.68365 19560 ft 342 kts 313°
2026-05-07 14:30 50.93283 0.65682 19098 ft 341 kts 313°
2026-05-07 14:30 50.94940 0.63007 18635 ft 340 kts 313°
2026-05-07 14:30 50.96592 0.60338 18135 ft 339 kts 313°
2026-05-07 14:30 50.98255 0.57651 17400 ft 347 kts 313°
2026-05-07 14:31 50.99960 0.54894 16718 ft 350 kts 313°
2026-05-07 14:31 51.01669 0.52132 16061 ft 351 kts 313°
2026-05-07 14:31 51.03380 0.49360 15386 ft 352 kts 313°
2026-05-07 14:31 51.05091 0.46582 14731 ft 353 kts 313°
2026-05-07 14:32 51.06811 0.43785 14061 ft 354 kts 313°
2026-05-07 14:32 51.08555 0.41024 13359 ft 355 kts 315°
2026-05-07 14:32 51.10337 0.38298 12685 ft 354 kts 315°
2026-05-07 14:32 51.12120 0.35610 12033 ft 352 kts 315°
2026-05-07 14:33 51.13897 0.32936 11441 ft 350 kts 315°
2026-05-07 14:33 51.15620 0.30330 11306 ft 334 kts 315°
2026-05-07 14:33 51.17263 0.27830 11174 ft 320 kts 315°
2026-05-07 14:33 51.18840 0.25422 11059 ft 308 kts 315°
2026-05-07 14:34 51.20364 0.23091 10842 ft 301 kts 315°
2026-05-07 14:34 51.21868 0.20786 10497 ft 299 kts 315°
2026-05-07 14:34 51.23364 0.18490 10316 ft 298 kts 315°
2026-05-07 14:34 51.24856 0.16205 9974 ft 297 kts 315°
2026-05-07 14:35 51.26338 0.13928 9594 ft 295 kts 315°
2026-05-07 14:35 51.27813 0.11658 9209 ft 293 kts 315°
2026-05-07 14:35 51.29272 0.09402 8864 ft 290 kts 315°
2026-05-07 14:35 51.30693 0.07200 8731 ft 280 kts 315°
2026-05-07 14:36 51.32054 0.05082 8599 ft 271 kts 313°
2026-05-07 14:36 51.33123 0.02688 8470 ft 260 kts 294°
2026-05-07 14:36 51.33695 0.00012 8302 ft 253 kts 283°
2026-05-07 14:36 51.34159 -0.02699 8050 ft 251 kts 284°
2026-05-07 14:37 51.34620 -0.05377 7790 ft 250 kts 284°
2026-05-07 14:37 51.35536 -0.10702 7087 ft 246 kts 284°
2026-05-07 14:37 51.35990 -0.13334 6727 ft 245 kts 284°
2026-05-07 14:38 51.36442 -0.15946 6298 ft 243 kts 284°
2026-05-07 14:38 51.36887 -0.18540 5865 ft 241 kts 284°
2026-05-07 14:38 51.37328 -0.21110 5480 ft 238 kts 284°
2026-05-07 14:38 51.37760 -0.23644 5328 ft 234 kts 284°
2026-05-07 14:39 51.38187 -0.26156 5157 ft 233 kts 284°
2026-05-07 14:39 51.38610 -0.28644 5008 ft 232 kts 284°
2026-05-07 14:39 51.39033 -0.31142 4853 ft 231 kts 284°
2026-05-07 14:39 51.39452 -0.33626 4701 ft 231 kts 284°
2026-05-07 14:40 51.39870 -0.36103 4546 ft 230 kts 284°
2026-05-07 14:40 51.40291 -0.38573 4399 ft 230 kts 284°
2026-05-07 14:40 51.40708 -0.41044 4244 ft 230 kts 284°
2026-05-07 14:40 51.41123 -0.43508 4095 ft 229 kts 284°
2026-05-07 14:41 51.41538 -0.45964 3940 ft 228 kts 284°
2026-05-07 14:41 51.41950 -0.48415 3797 ft 228 kts 284°
2026-05-07 14:41 51.42360 -0.50867 3648 ft 228 kts 284°
2026-05-07 14:41 51.42770 -0.53317 3498 ft 227 kts 284°
2026-05-07 14:42 51.43178 -0.55760 3345 ft 226 kts 284°
2026-05-07 14:42 51.43577 -0.58149 3234 ft 217 kts 284°
2026-05-07 14:42 51.43990 -0.60426 3122 ft 209 kts 292°
2026-05-07 14:42 51.44952 -0.62024 3020 ft 199 kts 339°
2026-05-07 14:43 51.46269 -0.62046 2987 ft 189 kts 24°
2026-05-07 14:43 51.47066 -0.60603 2976 ft 169 kts 77°
2026-05-07 14:43 51.46833 -0.58928 2982 ft 149 kts 124°
2026-05-07 14:43 51.46420 -0.57458 2792 ft 146 kts 92°
2026-05-07 14:44 51.46578 -0.55916 2552 ft 136 kts 83°
2026-05-07 14:44 51.46486 -0.54437 2187 ft 133 kts 96°
2026-05-07 14:44 51.46481 -0.53449 1979 ft 133 kts 92°
2026-05-07 14:44 51.46444 -0.51981 1613 ft 131 kts 102°
2026-05-07 14:45 51.45854 -0.50964 1182 ft 126 kts 165°
2026-05-07 14:45 51.45055 -0.51229 720 ft 125 kts 221°
2026-05-07 14:45 51.44781 -0.52573 458 ft 137 kts 284°
2026-05-07 14:45 51.45335 -0.53554 989 ft 117 kts 342°
2026-05-07 14:46 51.46144 -0.53287 1382 ft 130 kts 41°
2026-05-07 14:46 51.46454 -0.52007 2035 ft 127 kts 98°
2026-05-07 14:46 51.45970 -0.50896 2659 ft 125 kts 155°
2026-05-07 14:46 51.45077 -0.50490 3097 ft 150 kts 167°
2026-05-07 14:47 51.44141 -0.49352 3070 ft 192 kts 125°
2026-05-07 14:47 51.43837 -0.47160 3283 ft 204 kts 82°
2026-05-07 14:47 51.44415 -0.45094 3481 ft 213 kts 48°
2026-05-07 14:47 51.45606 -0.43732 3377 ft 212 kts 27°
2026-05-07 14:48 51.46904 -0.42615 3250 ft 212 kts 36°
2026-05-07 14:48 51.47747 -0.40735 3152 ft 211 kts 74°
2026-05-07 14:48 51.47854 -0.38408 3071 ft 210 kts 91°
2026-05-07 14:48 51.48226 -0.36185 3005 ft 212 kts 53°
2026-05-07 14:49 51.49448 -0.34959 2988 ft 212 kts 11°
2026-05-07 14:49 51.50908 -0.34987 2988 ft 211 kts 347°
2026-05-07 14:49 51.52239 -0.35915 2986 ft 209 kts 323°
2026-05-07 14:49 51.53179 -0.37663 2984 ft 208 kts 295°
2026-05-07 14:50 51.53476 -0.39896 2982 ft 207 kts 266°
2026-05-07 14:50 51.53132 -0.42129 2989 ft 206 kts 251°
2026-05-07 14:50 51.52682 -0.44318 2985 ft 206 kts 251°
2026-05-07 14:50 51.52233 -0.46495 2984 ft 206 kts 251°
2026-05-07 14:51 51.51783 -0.48674 2983 ft 206 kts 251°
2026-05-07 14:51 51.51333 -0.50851 2983 ft 206 kts 251°
2026-05-07 14:51 51.50883 -0.53032 2984 ft 205 kts 251°
2026-05-07 14:51 51.50434 -0.55207 2983 ft 205 kts 251°
2026-05-07 14:52 51.49985 -0.57380 2980 ft 205 kts 251°
2026-05-07 14:52 51.49537 -0.59552 2983 ft 205 kts 251°
2026-05-07 14:52 51.49088 -0.61732 2983 ft 205 kts 251°
2026-05-07 14:52 51.48638 -0.63905 2983 ft 206 kts 251°
2026-05-07 14:53 51.48184 -0.66086 2984 ft 206 kts 251°
2026-05-07 14:53 51.47721 -0.68257 2978 ft 206 kts 247°
2026-05-07 14:53 51.46779 -0.69905 2983 ft 206 kts 204°
2026-05-07 14:53 51.45389 -0.70037 2805 ft 202 kts 161°
2026-05-07 14:54 51.44370 -0.68591 2339 ft 200 kts 114°
2026-05-07 14:54 51.44352 -0.66452 1989 ft 192 kts 64°
2026-05-07 14:54 51.45079 -0.64685 1978 ft 188 kts 58°
2026-05-07 14:54 51.45746 -0.62894 1977 ft 187 kts 60°